Location: Alsip
(41.6689°N, 87.7387°W)
Time: 14:14:42
(UTC+00:00)

Alouette 2 Rocket - Pass Details

Date: 14 July 2020
Orbit: 502 x 2650 km, 79.8° (Epoch: 12 August)

Event Time Altitude Azimuth Distance (km) Brightness Sun altitude
Rises 02:05:20 0° 349° (NNW) 2,878 7.8 -7.1°
Reaches altitude 10° 02:07:13 10° 350° (N) 2,101 7.1 -7.4°
Maximum altitude 02:11:48 85° 79° (ENE) 864 4.3 -8.1°
Drops below altitude 10° 02:18:49 10° 168° (SSE) 3,171 6.7 -9.1°
Enters shadow 02:22:01 - 169° (S) 4,406 7.4 -9.6°
